User: anonymous
Location: Unspecified
(0.0000°N, 0.0000°E)
Time: 15:53:12
(UTC+02:00)
Language:

ARIANE DEB (SPELDA) - Orbit

View from above orbital plane
View from above orbital plane
View from above satellite
View from above satellite

Ground track
Ground track

The orbit data is extracted from the following two-line orbital elements,

1 27402U 02015D   14212.44774003  .00025082  00000-0  26662-1 0   454
2 27402 003.4132 236.1237 7105721 099.1484 340.2780 02.45608856107996
Epoch (UTC): 31 July 2014 10:44:44
Eccentricity: 0.7105721
inclination: 3.4132°
perigee height: 338 km
apogee height: 33314 km
right ascension of ascending node: 236.1237°
argument of perigee: 99.1484°
revolutions per day: 2.45608856
mean anomaly at epoch: 340.2780°
orbit number at epoch: 10799

The dashed part of the orbit path shows where the satellite is in the earth's shadow,  

DLR